Presure
111 103 114 123 118 120 105 129 124 105 124 128 112 128 130 132 121 131 127 136 145 132 105 147 127 140 141 130 169 172 165 163 158 157 170 185 180 168 147 167 171 166 162 161 156 168 161 155 150
135 136 119 118 125 118 134 111 115 123 105 112 136 121 123 127 133 138 131 145 124 140 124 127 129 130 138 147 143 163 166 144 150 159 165 167 189 170 171 169 170 151 157 169 163 155 156 153 145
139 107 106 122 124 126 125 103 136 138 126 129 121 135 123 139 128 131 142 129 155 127 119 133 138 134 138 141 136 153 147 155 168 151 157 154 159 180 161 162 169 149 171 164 171 169 152 170 157
127 138 140 140 138 129 112 111 128 145 136 138 127 128 123 141 123 130 146 139 129 124 144 149 141 129 128 148 138 155 143 206 164 155 162 150 165 157 169 169 162 142 169 163 162 156 160 161 152
127 121 133 129 128 137 134 133 145 143 133 124 147 128 131 130 130 128 140 147 124 118 138 138 136 134 138 153 133 154 154 185 158 145 159 159 150 162 168 168 164 162 173 159 157 164 150 153 174
125 139 125 109 115 132 135 136 131 124 139 120 132 130 125 139 136 124 134 143 111 121 127 131 116 151 142 151 128 154 142 153 159 157 148 152 157 171 166 180 172 161 170 159 156 151 162 165 158
123 129 115 116 132 116 137 124 147 129 114 136 137 131 148 127 132 129 136 144 120 115 128 125 132 123 148 151 145 146 141 145 144 163 155 148 166 177 165 172 171 162 170 147 161 151 164 173 158
130 139 111 125 134 141 141 145 142 139 120 142 132 131 127 121 140 140 137 121 140 136 136 147 117 131 150 135 137 142 145 154 154 148 179 197 176 166 190 169 173 164 159 153 160 164 151 175 151
121 131 114 134 109 121 139 138 128 141 139 125 125 127 125 124 141 134 135 142 139 143 153 131 130 125 133 146 126 158 152 146 146 154 156 215 218 157 195 165 174 172 164 172 170 161 163 157 168
140 139 138 142 139 116 135 137 138 141 137 131 130 134 117 142 144 150 119 164 125 128 141 150 147 135 155 142 156 151 155 157 138 156 166 168 166 160 190 165 175 156 162 149 171 167 162 163 154
150 149 149 145 147 147 144 142 147 124 132 131 149 144 142 123 139 136 128 154 165 141 115 144 133 134 134 124 150 150 159 154 143 151 188 162 156 163 176 174 180 172 161 162 153 152 157 160 146
152 149 149 113 145 122 141 142 147 122 154 145 152 151 124 158 124 143 123 117 125 130 151 155 124 125 150 147 146 142 146 153 145 148 160 158 161 160 152 190 177 168 158 163 159 159 159 150 160
154 155 157 158 156 148 150 151 151 150 149 148 147 153 157 147 133 119 134 119 132 143 126 135 122 152 128 136 144 140 145 149 148 155 170 184 165 161 156 170 184 168 162 151 151 159 156 147 159
147 142 152 162 147 155 169 169 166 164 167 160 154 162 156 160 115 119 132 173 102 143 106 110 162 119 140 159 133 167 144 145 149 138 154 186 164 165 158 203 202 170 151 155 155 158 167 150 170
159 153 133 145 155 151 147 155 162 169 168 189 180 177 137 183 201 194 202 121 189 168 145 138 150 143 119 139 133 144 144 149 154 158 178 172 152 163 150 217 215 170 151 167 158 140 163 165 153
174 165 164 157 163 144 156 157 155 164 174 172 171 169 180 183 153 168 191 172 141 124 144 152 156 122 167 156 139 154 159 155 150 157 148 157 149 160 140 179 205 164 156 167 162 164 155 181 135
163 181 186 176 168 166 164 165 170 153 158 169 172 176 184 170 189 140 181 149 168 127 147 158 123 157 135 148 148 146 149 143 141 147 153 180 147 160 166 187 190 164 159 156 152 141 144 159 164
186 182 163 173 178 178 181 177 170 157 163 164 166 173 174 174 191 174 133 164 160 150 109 140 149 153 149 147 148 157 145 147 140 150 161 166 195 182 166 177 201 170 157 156 151 149 165 140 154
212 137 166 173 185 178 186 182 165 143 156 147 164 171 186 134 187 157 126 174 123 163 169 165 161 147 132 144 146 136 155 151 143 150 161 192 193 193 163 156 215 170 160 132 155 159 149 156 151
214 217 216 134 179 195 164 184 187 164 142 147 153 169 170 173 146 155 176 145 146 140 142 140 142 144 168 144 145 155 152 148 143 155 167 160 196 169 152 161 227 156 163 166 164 162 147 162 153
225 211 211 210 212 131 192 193 165 175 179 153 149 155 183 166 200 174 176 151 148 155 142 172 170 150 155 161 150 140 148 148 147 167 172 198 154 172 155 161 140 173 157 162 174 164 164 155 154
175 244 236 207 213 210 188 168 188 191 196 193 147 155 160 163 142 174 136 174 166 158 172 162 161 159 134 164 145 145 166 145 158 164 162 191 195 177 153 153 154 170 143 134 189 175 175 162 155
153 156 239 244 246 211 213 208 186 171 194 154 192 149 150 148 153 184 162 174 178 145 146 146 149 160 154 166 167 156 163 153 159 181 208 201 202 166 178 159 154 145 143 157 148 145 153 165 162
154 155 154 244 249 213 206 204 206 198 192 175 191 153 157 157 155 150 145 190 149 147 149 172 150 138 141 171 146 155 137 174 176 178 221 200 201 190 162 154 161 148 138 153 153 144 143 143 136
172 143 150 127 232 240 252 217 197 212 208 186 186 190 152 173 152 148 145 137 133 131 141 147 140 145 123 174 143 146 140 150 182 164 150 208 185 182 161 159 159 135 145 146 141 154 150 144 151
231 135 154 164 213 231 232 208 223 203 201 205 196 167 186 176 168 161 158 156 144 148 155 150 159 157 142 154 173 149 142 229 197 180 143 207 224 146 131 144 156 151 148 148 142 159 140 144 159
138 250 134 140 142 145 213 231 260 214 230 198 191 181 182 192 189 167 165 163 146 152 161 152 155 117 162 155 152 137 136 161 181 168 177 164 166 171 188 159 165 140 132 137 140 142 146 142 151
218 226 184 154 141 148 200 237 243 249 238 215 168 204 182 189 186 201 173 162 112 173 175 145 162 230 210 195 179 173 158 175 161 167 175 157 136 147 147 170 168 142 137 169 136 149 142 149 157
222 263 252 232 154 215 216 229 229 251 237 228 208 81 202 169 95 108 136 186 180 183 172 165 168 210 191 183 181 184 186 173 166 167 151 146 158 144 175 148 160 173 173 141 133 160 135 147 149
270 264 256 185 227 231 240 229 233 246 272 225 219 215 195 225 179 181 200 183 198 185 155 100 166 159 214 194 186 189 170 165 154 150 161 177 195 193 199 185 195 164 163 173 175 181 175 144 153
Wind_Speed
12 8 12 17 16 16 3 7 3 5 1 1 10 8 13 18 7 19 14 26 26 21 8 28 21 30 35 27 39 39 34 34 30 30 29 19 13 14 20 18 18 16 15 15 17 18 15 17 15
17 19 13 12 16 9 18 4 8 5 8 5 15 7 5 13 18 25 23 36 18 23 21 23 25 24 33 35 36 42 39 22 27 34 30 27 12 18 15 15 20 18 16 18 15 9 14 13 16
19 4 2 17 15 14 16 11 18 19 10 9 5 16 5 17 7 17 33 19 22 20 20 25 26 28 31 32 35 38 38 34 26 28 30 25 25 14 18 19 15 17 17 14 14 10 16 16 17
21 23 25 25 28 21 13 5 5 29 16 8 5 5 5 21 7 15 39 22 16 19 22 19 23 24 25 34 37 42 35 35 33 24 30 25 26 25 17 13 13 19 13 9 13 14 18 22 14
17 14 20 16 15 25 27 23 30 22 7 5 24 4 6 8 10 11 30 31 15 13 21 20 23 28 30 32 35 40 43 47 29 21 28 32 27 24 18 10 12 10 11 11 14 19 18 17 25
19 32 15 6 13 22 23 20 11 9 9 7 11 6 5 21 17 8 20 31 11 16 15 24 17 25 28 29 30 39 38 42 33 26 25 28 28 20 15 6 8 7 11 12 17 18 20 18 16
18 18 15 14 21 10 24 11 31 10 5 18 22 10 29 4 13 11 19 31 14 13 22 22 26 23 27 26 32 37 33 35 33 35 31 27 25 16 18 8 4 5 11 12 20 19 22 19 16
24 42 10 19 24 28 25 27 29 16 13 18 9 10 6 7 29 23 19 14 26 20 21 24 10 27 24 29 31 35 35 36 35 37 39 25 19 19 5 6 3 6 10 14 17 14 20 17 19
20 29 8 21 5 14 22 25 18 20 13 11 13 15 10 11 29 20 16 17 25 29 28 17 22 27 31 25 28 33 33 31 33 39 25 23 14 25 3 12 1 7 11 11 14 14 12 18 23
36 37 33 35 30 12 24 27 28 26 14 8 12 17 13 26 26 29 11 24 16 22 26 26 23 27 20 25 29 28 31 32 26 38 34 32 28 26 5 14 1 14 11 14 18 13 17 16 25
39 44 41 36 37 37 38 34 39 15 15 10 34 33 27 18 18 18 15 26 25 28 11 12 18 23 26 30 25 30 30 30 30 37 38 26 23 29 22 11 1 4 10 15 16 16 22 25 18
40 38 37 7 28 20 33 33 37 14 42 30 33 33 14 34 17 25 12 12 15 19 31 34 19 22 18 22 25 26 29 29 31 32 35 29 21 21 20 5 1 5 9 13 15 15 20 19 22
36 36 39 39 36 37 38 38 36 36 36 35 29 31 32 26 17 14 19 12 16 27 12 10 22 18 22 23 24 24 28 30 31 38 36 32 26 22 20 18 2 3 8 10 11 12 13 13 18
28 27 35 34 27 36 41 41 37 36 38 38 34 36 32 33 11 14 24 33 5 22 4 9 28 15 17 29 21 33 28 30 31 28 33 32 25 21 19 12 0 4 9 6 7 13 11 13 18
35 31 28 29 32 32 31 34 33 34 33 38 38 37 16 35 28 27 19 3 28 38 14 10 24 10 14 19 21 25 27 32 36 37 36 29 21 20 17 2 3 5 8 6 4 17 12 15 15
48 43 39 37 37 29 32 33 28 29 32 32 32 34 32 29 30 29 17 28 13 3 20 28 25 10 32 24 22 29 32 34 32 38 28 26 19 20 16 16 6 3 5 6 5 9 10 12 18
39 47 48 45 42 42 36 34 30 26 29 30 31 32 30 29 26 14 25 16 21 9 26 37 10 32 11 18 24 26 30 31 31 31 28 33 19 16 18 14 6 1 1 3 8 10 10 10 13
47 43 38 43 45 46 43 38 31 28 29 29 31 31 30 31 27 30 13 30 31 31 8 25 23 31 29 30 31 40 28 31 30 31 33 27 21 15 15 16 11 3 2 7 10 7 7 12 8
45 26 36 41 45 42 45 41 31 28 29 30 31 32 29 17 31 24 14 31 16 31 34 32 36 28 21 29 29 26 34 32 31 31 32 28 17 7 10 6 12 2 2 12 10 7 7 8 8
44 44 45 22 39 44 35 40 39 31 30 31 33 33 33 33 22 23 31 23 24 22 24 23 24 24 41 30 30 37 34 30 30 32 31 16 11 10 11 3 12 8 5 9 10 10 10 5 2
42 44 43 45 42 25 41 41 35 37 35 34 33 34 33 36 37 34 33 27 28 35 24 34 34 28 34 41 34 30 32 30 31 31 29 24 10 9 8 1 13 3 8 8 14 10 12 8 8
28 38 40 44 42 42 39 36 40 40 38 38 32 34 34 36 26 36 22 37 37 32 35 35 35 33 22 44 32 32 36 30 28 28 30 24 15 9 10 7 2 8 4 10 12 15 13 14 4
24 25 40 38 39 42 41 42 40 38 40 37 35 36 34 31 33 36 31 35 40 30 28 29 29 36 32 37 36 33 30 29 25 24 16 21 19 10 8 9 7 2 4 7 5 7 11 16 18
27 26 26 35 35 41 38 38 43 43 36 36 36 39 38 36 35 34 33 34 31 30 32 37 31 25 31 35 29 31 29 27 22 19 22 18 17 13 9 7 6 6 13 6 7 8 10 11 4
33 24 26 16 34 34 33 38 45 43 39 38 38 37 39 40 36 32 29 26 26 26 32 34 32 35 13 31 30 29 29 27 19 18 15 17 15 12 8 9 6 19 7 3 9 8 8 11 13
36 25 25 28 34 36 34 43 46 43 39 38 39 40 40 41 39 37 36 37 35 37 38 37 38 35 32 33 30 31 32 12 9 16 17 6 15 18 15 16 10 9 9 11 12 7 16 16 13
24 38 26 25 27 30 30 41 33 45 44 39 38 41 40 40 41 39 39 39 34 36 40 37 36 14 29 33 29 28 29 31 6 18 2 8 11 16 9 21 16 16 16 19 20 20 13 16 16
42 40 32 28 28 28 30 35 33 36 42 44 26 39 42 40 39 40 37 38 18 41 36 29 35 19 19 18 21 22 26 17 28 10 4 5 20 17 19 18 15 18 20 18 21 20 19 15 16
35 38 37 35 32 32 37 35 36 32 39 42 38 10 38 38 13 13 17 37 39 36 32 29 32 20 21 21 21 20 18 17 19 16 21 23 25 26 25 21 23 21 23 20 18 20 24 24 20
35 35 33 31 32 33 33 37 36 34 33 39 37 37 35 31 38 33 31 38 29 31 36 22 27 28 8 19 20 19 25 24 26 25 23 15 18 18 22 26 25 28 28 19 23 22 22 27 23
Wind_Direction
183 128 191 224 218 199 162 195 211 45 247 28 326 17 9 15 326 3 359 357 348 351 16 3 3 3 2 12 16 17 19 23 15 17 18 19 18 4 352 350 12 11 6 13 13 35 26 35 27
220 233 215 222 238 222 276 201 215 287 16 341 21 331 343 20 6 357 356 351 354 355 351 351 358 3 3 5 9 20 17 14 16 13 18 20 23 16 10 354 17 353 9 22 28 35 23 46 25
232 160 206 236 245 248 266 49 277 287 289 18 276 343 331 3 356 4 351 354 346 344 1 353 352 4 357 5 14 16 16 13 14 7 15 12 16 24 12 3 26 357 31 39 51 45 38 48 34
210 244 247 254 255 256 211 252 233 283 287 333 341 326 340 1 316 4 348 348 347 348 360 14 357 358 8 358 9 9 13 12 18 10 12 10 11 11 9 351 325 351 32 35 46 37 31 28 40
233 238 244 243 250 259 263 272 279 287 314 271 309 277 346 0 350 356 344 339 339 5 334 351 353 354 353 353 11 8 13 14 20 17 18 8 1 6 1 357 339 357 37 47 44 41 41 34 14
241 257 240 243 254 250 259 262 258 286 305 291 307 294 228 335 347 336 333 332 33 357 352 348 4 2 354 355 7 14 11 14 14 20 12 3 1 355 356 34 59 4 52 40 35 36 24 29 39
235 240 222 243 248 253 256 253 279 265 273 289 298 268 321 292 336 320 319 328 359 22 341 350 348 352 350 3 2 14 11 11 12 11 11 2 353 354 353 331 59 10 61 17 25 43 31 17 55
247 255 251 243 264 268 266 271 272 266 228 295 255 292 261 264 316 314 304 340 300 315 325 315 17 348 351 353 359 5 4 10 9 12 5 342 342 358 350 338 295 3 46 32 44 38 47 24 58
233 251 251 258 301 259 282 280 259 283 260 237 212 278 267 274 307 311 299 310 287 297 298 355 347 359 343 351 7 1 5 8 11 7 11 2 10 9 52 6 21 55 64 54 53 60 61 58 52
249 252 259 266 266 274 271 271 275 275 264 201 246 264 269 290 294 297 331 293 13 8 355 331 344 346 336 355 358 2 8 8 13 7 6 19 13 10 38 4 217 328 78 43 62 80 70 63 57
250 253 253 258 264 267 269 273 275 262 244 236 286 286 285 285 268 306 316 292 261 299 6 14 356 357 342 1 359 1 10 6 7 7 6 10 23 12 17 0 231 328 65 75 62 60 77 74 61
251 254 259 223 271 269 266 268 273 288 276 278 278 280 252 287 301 287 356 27 352 353 302 319 355 355 344 346 355 356 3 8 4 8 359 355 16 27 30 28 330 6 52 85 87 79 82 71 67
249 255 260 260 262 268 268 268 266 268 272 273 273 276 277 268 306 343 299 15 334 303 341 329 2 313 336 349 356 1 3 9 7 0 359 359 356 17 25 14 247 45 87 42 36 81 89 63 69
245 251 258 262 252 260 265 265 267 269 271 272 274 273 273 274 313 330 295 275 28 303 17 15 300 350 334 336 7 346 3 10 8 3 357 4 356 3 26 336 231 133 37 32 48 59 82 75 77
257 252 256 255 256 253 256 265 272 273 272 271 276 279 277 278 269 263 261 272 254 267 318 301 313 314 324 0 6 351 3 3 357 354 351 357 353 356 8 323 193 146 35 116 86 38 81 81 85
258 257 254 254 258 254 255 257 260 269 272 273 274 275 275 271 278 270 235 257 289 257 317 309 309 307 320 336 6 354 349 357 0 346 352 347 341 344 340 18 168 75 45 119 103 101 71 91 18
253 255 254 255 254 254 251 256 260 256 263 266 265 264 261 265 251 276 245 230 255 335 301 297 297 310 348 6 355 353 358 356 3 352 348 343 337 337 357 9 232 75 353 297 359 28 28 54 111
254 253 252 251 252 255 258 257 253 248 249 258 261 260 261 261 250 245 284 250 265 281 310 294 312 315 339 354 345 333 352 346 354 343 335 342 341 351 349 5 201 206 32 297 6 17 67 23 83
249 252 253 249 250 252 254 255 247 256 248 261 255 256 250 272 248 249 280 253 303 276 277 286 289 320 357 340 337 1 336 335 344 334 331 333 338 343 331 26 200 239 318 37 313 326 18 13 97
252 252 249 262 253 251 257 253 254 244 255 256 257 251 253 256 262 265 250 278 282 294 299 311 312 317 284 334 335 324 329 335 336 323 324 329 333 330 318 335 196 12 315 281 272 303 28 340 62
251 253 253 253 252 261 253 253 255 248 247 247 255 255 242 259 240 253 253 272 279 277 295 275 277 294 297 285 315 336 326 332 330 320 315 306 320 301 294 325 297 297 20 342 270 305 303 358 56
256 250 248 253 249 247 246 249 248 247 245 244 259 254 251 255 275 252 272 253 264 271 270 280 284 292 327 290 319 318 305 325 321 318 314 308 290 275 278 266 68 16 20 328 274 286 286 350 43
260 258 247 248 243 247 246 244 243 249 245 258 242 263 264 267 265 245 261 260 254 284 286 292 287 286 298 288 288 301 304 318 316 323 257 264 265 253 239 277 264 262 345 16 22 13 20 347 335
262 261 260 252 250 249 249 249 249 246 243 250 244 254 256 256 256 265 276 253 272 281 282 270 296 306 307 288 307 301 322 309 328 322 218 254 243 236 253 274 294 308 301 355 357 349 352 348 77
261 262 258 257 249 247 249 243 247 246 242 239 243 242 258 247 260 260 267 275 284 297 291 289 297 293 316 282 310 305 312 311 314 307 332 240 253 236 250 257 263 303 269 304 314 330 329 332 332
260 270 266 261 251 244 240 246 240 246 243 240 239 250 239 243 248 257 259 263 281 276 273 278 275 279 298 288 291 298 313 269 292 293 289 341 224 291 309 292 245 260 276 292 306 315 313 329 341
276 259 276 270 268 272 245 242 245 248 244 242 238 240 240 237 241 248 251 257 270 270 269 285 284 308 285 289 295 302 299 288 281 272 342 325 293 283 226 271 253 289 305 310 312 308 294 312 315
258 258 263 268 269 277 251 250 242 242 240 244 241 240 246 245 244 247 249 256 260 260 271 290 277 248 257 253 265 266 277 257 278 284 340 279 292 285 280 284 280 272 281 279 300 284 299 301 297
256 249 249 247 268 255 247 248 245 241 235 239 242 306 243 247 277 328 293 254 256 264 270 269 278 246 259 253 256 253 233 235 253 263 284 288 267 283 270 286 283 272 281 282 288 274 299 295 291
252 247 244 261 250 247 248 246 244 239 236 235 236 238 239 230 247 251 248 254 253 265 263 263 264 277 253 245 238 242 249 256 270 272 262 273 266 260 249 264 248 275 278 271 283 284 272 295 292